EW5139 Weather Reports


time (UTC)temp
C
wind
direction
speed
KPH
gust
KPH
rain 1hr
cm
rain 24hr
cm
rain mn
cm
humidity
%
barometer
mb
20260503200905 16 274 1.6 4.8 0.00 0.00 0.00 43 1016.3
20260503200405 16 151 1.6 4.8 0.00 0.00 0.00 45 1016.1
20260503195904 16 178 3.2 9.7 0.00 0.00 0.00 42 1016.1
20260503195404 16 153 3.2 8.0 0.00 0.00 0.00 43 1016.2
20260503194404 17 199 1.6 4.8 0.00 0.00 0.00 42 1016.4
20260503193904 17 128 3.2 9.7 0.00 0.00 0.00 44 1016.6
20260503193405 17 127 1.6 11.3 0.00 0.00 0.00 44 1016.7
20260503192904 17 187 3.2 8.0 0.00 0.00 0.00 42 1017.1
20260503192404 16 135 1.6 8.0 0.00 0.00 0.00 43 1017.1
20260503191905 16 259 1.6 11.3 0.00 0.00 0.00 42 1017.1
20260503191405 16 136 4.8 14.5 0.00 0.00 0.00 43 1017.2
20260503190404 16 322 4.8 14.5 0.00 0.00 0.00 43 1017.3
20260503185904 16 126 3.2 11.3 0.00 0.00 0.00 45 1017.3
20260503184904 15 228 3.2 19.3 0.00 0.00 0.00 43 1017.6
20260503184404 15 110 1.6 4.8 0.00 0.00 0.00 44 1017.6
20260503183904 15 268 3.2 14.5 0.00 0.00 0.00 42 1017.9
20260503182405 16 294 3.2 9.7 0.00 0.00 0.00 41 1017.9
20260503181904 16 170 1.6 9.7 0.00 0.00 0.00 41 1018.1
20260503181405 16 264 1.6 9.7 0.00 0.00 0.00 43 1018.1
20260503180904 16 126 4.8 9.7 0.00 0.00 0.00 42 1018.3
20260503180404 16 137 3.2 11.3 0.00 0.00 0.00 43 1018.2
20260503175904 16 189 3.2 11.3 0.00 0.00 0.00 43 1018.3
20260503175404 16 287 3.2 11.3 0.00 0.00 0.00 43 1018.3
20260503174905 16 150 3.2 8.0 0.00 0.00 0.00 44 1018.3
20260503174404 16 103 1.6 4.8 0.00 0.00 0.00 42 1018.4
20260503173904 16 133 1.6 9.7 0.00 0.00 0.00 43 1018.5
20260503173404 15 238 1.6 4.8 0.00 0.00 0.00 44 1018.5
20260503172905 15 289 3.2 8.0 0.00 0.00 0.00 45 1018.6
20260503172404 16 274 1.6 4.8 0.00 0.00 0.00 44 1018.7
20260503171904 15 132 1.6 4.8 0.00 0.00 0.00 44 1018.8
20260503171404 15 185 1.6 9.7 0.00 0.00 0.00 44 1019.0
20260503170904 15 202 4.8 11.3 0.00 0.00 0.00 44 1018.9
20260503170404 15 357 1.6 8.0 0.00 0.00 0.00 45 1019.2
20260503150904 12 165 0.0 9.7 0.00 0.00 0.00 54 1020.5
20260503150403 12 120 1.6 12.9 0.00 0.00 0.00 52 1020.6
20260503131408 8 290 0.0 1.6 0.00 0.00 0.00 71 1020.5
20260503130907 7 292 0.0 1.6 0.00 0.00 0.00 73 1020.6
20260503130407 7 275 0.0 3.2 0.00 0.00 0.00 74 1020.6
20260503110407 0 1 0.0 0.0 0.00 0.00 0.00 95 1020.0
20260503090407 0 0 0.0 0.0 0.00 0.00 0.00 92 1019.4
20260503081407 0 0 0.0 0.0 0.00 0.00 0.00 91 1019.2
20260503080907 0 0 0.0 0.0 0.00 0.00 0.00 91 1019.2
20260503072907 0 0 0.0 0.0 0.00 0.00 0.00 89 1019.2
20260503072407 0 0 0.0 0.0 0.00 0.00 0.00 89 1019.2
20260503071907 1 0 0.0 0.0 0.00 0.00 0.00 89 1019.2
20260503071406 1 0 0.0 0.0 0.00 0.00 0.00 89 1019.2
20260503054907 2 0 0.0 0.0 0.00 0.00 0.00 85 1019.6
20260503054406 2 0 0.0 0.0 0.00 0.00 0.00 85 1019.6
20260503053907 2 0 0.0 0.0 0.00 0.00 0.00 85 1019.6
20260503053406 2 0 0.0 0.0 0.00 0.00 0.00 85 1019.6
20260503052906 2 0 0.0 0.0 0.00 0.00 0.00 84 1019.6
20260503052406 2 0 0.0 0.0 0.00 0.00 0.00 83 1019.7
20260503051907 2 0 0.0 0.0 0.00 0.00 0.00 82 1019.6
20260503051406 2 0 0.0 0.0 0.00 0.00 0.00 82 1019.6
20260503050906 2 0 0.0 0.0 0.00 0.00 0.00 81 1019.6
20260503050406 2 0 0.0 0.0 0.00 0.00 0.00 81 1019.6
20260503045906 2 0 0.0 0.0 0.00 0.00 0.00 81 1019.7
20260503045406 2 0 0.0 0.0 0.00 0.00 0.00 79 1019.6
20260503044406 2 0 0.0 0.0 0.00 0.00 0.00 79 1019.6
20260503043906 2 0 0.0 0.0 0.00 0.00 0.00 79 1019.6
20260503043406 2 0 0.0 0.0 0.00 0.00 0.00 79 1019.6
20260503042906 2 0 0.0 0.0 0.00 0.00 0.00 79 1019.6
20260503041906 2 0 0.0 0.0 0.00 0.00 0.00 79 1019.6
20260503041406 2 0 0.0 0.0 0.00 0.00 0.00 79 1019.6
20260503040906 2 0 0.0 0.0 0.00 0.00 0.00 78 1019.5
20260503035906 2 0 0.0 0.0 0.00 0.00 0.00 78 1019.5
20260503035406 2 0 0.0 0.0 0.00 0.00 0.00 78 1019.5
20260503034906 3 0 0.0 0.0 0.00 0.00 0.00 78 1019.5
20260503033905 3 0 0.0 0.0 0.00 0.00 0.00 78 1019.5
20260503033406 3 0 0.0 0.0 0.00 0.00 0.00 77 1019.5
20260503032406 3 0 0.0 0.0 0.00 0.00 0.00 76 1019.5
20260503031906 3 0 0.0 0.0 0.00 0.00 0.00 76 1019.6
20260503031405 3 0 0.0 0.0 0.00 0.00 0.00 75 1019.5
20260503030906 3 0 0.0 0.0 0.00 0.00 0.00 76 1019.6
20260503030406 3 0 0.0 0.0 0.00 0.00 0.00 76 1019.5
20260503025906 3 0 0.0 0.0 0.00 0.00 0.00 76 1019.6
20260503024906 3 0 0.0 0.0 0.00 0.00 0.00 75 1019.6
20260503024406 4 0 0.0 0.0 0.00 0.00 0.00 74 1019.6
20260503023905 4 0 0.0 0.0 0.00 0.00 0.00 74 1019.6
20260503023406 4 0 0.0 0.0 0.00 0.00 0.00 74 1019.6
20260503022906 4 0 0.0 0.0 0.00 0.00 0.00 73 1019.6
20260503022405 5 0 0.0 0.0 0.00 0.00 0.00 73 1019.6
20260503021906 5 0 0.0 0.0 0.00 0.00 0.00 72 1019.6
20260503021406 5 0 0.0 1.6 0.00 0.00 0.00 72 1019.6
20260503020905 5 0 0.0 0.0 0.00 0.00 0.00 71 1019.5
20260503020405 5 0 0.0 0.0 0.00 0.00 0.00 71 1019.5
20260503015905 5 0 0.0 0.0 0.00 0.00 0.00 71 1019.5
20260503015406 5 0 0.0 0.0 0.00 0.00 0.00 71 1019.6
20260503014905 5 0 0.0 0.0 0.00 0.00 0.00 70 1019.5
20260503014405 5 0 0.0 0.0 0.00 0.00 0.00 70 1019.4
20260503012905 6 0 0.0 0.0 0.00 0.00 0.00 67 1019.3
20260503011905 6 0 0.0 0.0 0.00 0.00 0.00 65 1019.1
20260503011406 6 0 0.0 0.0 0.00 0.00 0.00 64 1019.1
20260503010905 6 0 0.0 1.6 0.00 0.00 0.00 63 1019.1
20260503010405 6 0 0.0 1.6 0.00 0.00 0.00 62 1019.0
20260503005905 7 0 0.0 1.6 0.00 0.00 0.00 62 1019.0
20260503005405 7 359 0.0 1.6 0.00 0.00 0.00 62 1018.9
20260503004406 7 344 0.0 1.6 0.00 0.00 0.00 60 1018.8
20260503003905 7 0 0.0 4.8 0.00 0.00 0.00 60 1018.8
20260503003406 7 352 0.0 3.2 0.00 0.00 0.00 59 1018.8
20260503002405 7 8 1.6 4.8 0.00 0.00 0.00 58 1018.8
20260503001905 8 357 3.2 4.8 0.00 0.00 0.00 57 1018.7
20260503001405 8 332 3.2 12.9 0.00 0.00 0.00 57 1018.7
20260503000905 8 350 1.6 8.0 0.00 0.00 0.00 57 1018.6
20260503000407 8 354 1.6 4.8 0.00 0.00 0.00 56 1018.6
20260502235906 8 338 3.2 9.7 0.00 0.00 0.00 56 1018.5
20260502235405 8 350 1.6 8.0 0.00 0.00 0.00 56 1018.5
20260502234905 8 337 4.8 11.3 0.00 0.00 0.00 55 1018.4
20260502234406 9 331 3.2 11.3 0.00 0.00 0.00 55 1018.3
20260502233905 9 353 0.0 4.8 0.00 0.00 0.00 56 1018.3
20260502232905 9 26 3.2 4.8 0.00 0.00 0.00 55 1018.2
20260502232405 9 18 1.6 3.2 0.00 0.00 0.00 55 1018.2
20260502231906 9 4 1.6 9.7 0.00 0.00 0.00 54 1018.2
20260502231405 9 3 3.2 12.9 0.00 0.00 0.00 53 1018.2
20260502230406 10 6 1.6 4.8 0.00 0.00 0.00 53 1018.1
20260502225905 10 44 1.6 8.0 0.00 0.00 0.00 51 1018.1
20260502225405 10 340 3.2 8.0 0.00 0.00 0.00 51 1018.0
20260502224905 10 327 1.6 8.0 0.00 0.00 0.00 50 1018.0
20260502224405 10 7 1.6 9.7 0.00 0.00 0.00 53 1018.0
20260502223905 10 0 1.6 12.9 0.00 0.00 0.00 50 1018.0
20260502223405 10 358 1.6 9.7 0.00 0.00 0.00 51 1018.0
20260502222905 10 352 3.2 11.3 0.00 0.00 0.00 50 1017.9
20260502222405 10 329 3.2 9.7 0.00 0.00 0.00 50 1017.9
20260502221905 10 325 4.8 12.9 0.00 0.00 0.00 50 1018.0
20260502221405 10 328 6.4 16.1 0.00 0.00 0.00 50 1017.9
20260502220905 10 333 3.2 12.9 0.00 0.00 0.00 51 1018.0
20260502220405 10 350 4.8 11.3 0.00 0.00 0.00 49 1018.0
20260502215905 10 328 1.6 16.1 0.00 0.00 0.00 49 1017.9
20260502215405 11 342 1.6 4.8 0.00 0.00 0.00 51 1017.8
20260502214905 11 334 1.6 4.8 0.00 0.00 0.00 50 1017.8
20260502214405 10 349 3.2 8.0 0.00 0.00 0.00 50 1017.8
20260502213905 10 343 6.4 14.5 0.00 0.00 0.00 49 1017.8
20260502213405 11 333 3.2 9.7 0.00 0.00 0.00 49 1017.7
20260502212405 11 344 3.2 8.0 0.00 0.00 0.00 48 1017.7
20260502211405 11 341 3.2 12.9 0.00 0.00 0.00 50 1017.7
20260502210905 10 331 3.2 12.9 0.00 0.00 0.00 49 1017.7
20260502204905 11 230 1.6 8.0 0.00 0.00 0.00 48 1017.7
20260502203905 11 335 6.4 16.1 0.00 0.00 0.00 48 1017.7
20260502203404 11 335 1.6 16.1 0.00 0.00 0.00 50 1017.7
20260502202905 11 12 0.0 4.8 0.00 0.00 0.00 48 1017.7
20260502202404 11 296 4.8 11.3 0.00 0.00 0.00 45 1017.8
20260502201904 12 314 4.8 11.3 0.00 0.00 0.00 44 1017.8
20260502201404 12 332 4.8 12.9 0.00 0.00 0.00 48 1017.7